When you browse on this site, cookies collect data to enhance your experience and personalize the content and advertising you see.
Visit our Privacy Policy to learn more. By continuing to use the site, you agree to this use of cookies and data.
  • In Hungary
  • List of Countries
  • For 7 days
  • Water Temperature
  • Satellite Maps
  • Weather Map
  • News
  • Weather Widgets
  • user-avatar
    Login

    Hourly Weather Pstrzejowice

    Today, 26 May, Sunday

    Time Temperature Precipitation Wind Pressure Humidity
    00:00 +10°C° 0 mm 2 mps 747 mmHg 90%
    01:00 +9°C° 0 mm 2 mps 747 mmHg 92%
    02:00 +10°C° 0 mm 1 mps 747 mmHg 92%
    03:00 +10°C° 0 mm 1 mps 747 mmHg 93%
    04:00 +9°C° 0 mm 1 mps 747 mmHg 93%
    05:00 +10°C° 0 mm 2 mps 747 mmHg 89%
    06:00 +12°C° 0 mm 2 mps 747 mmHg 85%
    07:00 +14°C° 0 mm 2 mps 747 mmHg 80%
    08:00 +14°C° 0 mm 3 mps 747 mmHg 75%
    09:00 +17°C° 0 mm 3 mps 747 mmHg 69%
    10:00 +18°C° 0 mm 4 mps 747 mmHg 63%
    11:00 +19°C° 0 mm 4 mps 746 mmHg 60%
    12:00 +20°C° 0 mm 4 mps 746 mmHg 57%
    13:00 +21°C° 0 mm 4 mps 745 mmHg 54%
    14:00 +21°C° 0 mm 4 mps 745 mmHg 54%
    15:00 +22°C° 0 mm 4 mps 745 mmHg 55%
    16:00 +22°C° 0 mm 4 mps 744 mmHg 55%
    17:00 +21°C° 0 mm 3 mps 744 mmHg 61%
    18:00 +20°C° 0 mm 2 mps 744 mmHg 66%
    19:00 +19°C° 0 mm 2 mps 744 mmHg 72%
    20:00 +17°C° 0 mm 2 mps 744 mmHg 75%
    21:00 +16°C° 0 mm 2 mps 744 mmHg 78%
    22:00 +15°C° 0 mm 2 mps 744 mmHg 81%
    23:00 +15°C° 0 mm 2 mps 744 mmHg 84%

    Tomorrow, 27 May, Monday

    Time Temperature Precipitation Wind Pressure Humidity
    00:00 +14°C° 0 mm 2 mps 744 mmHg 87%
    01:00 +14°C° 0 mm 2 mps 744 mmHg 89%
    02:00 +12°C° 0 mm 3 mps 743 mmHg 90%
    03:00 +12°C° 0 mm 3 mps 743 mmHg 90%
    04:00 +12°C° 0 mm 3 mps 743 mmHg 91%
    05:00 +14°C° 0 mm 3 mps 743 mmHg 85%
    06:00 +16°C° 0 mm 3 mps 743 mmHg 80%
    07:00 +18°C° 0 mm 4 mps 743 mmHg 74%
    08:00 +20°C° 0 mm 4 mps 743 mmHg 68%
    09:00 +21°C° 0 mm 4 mps 743 mmHg 61%
    10:00 +23°C° 0 mm 5 mps 743 mmHg 54%
    11:00 +23°C° 0 mm 4 mps 742 mmHg 51%
    12:00 +25°C° 0 mm 4 mps 742 mmHg 49%
    13:00 +26°C° 0 mm 4 mps 742 mmHg 46%
    14:00 +26°C° 0 mm 3 mps 742 mmHg 47%
    15:00 +26°C° 0 mm 3 mps 742 mmHg 49%
    16:00 +26°C° 0 mm 3 mps 741 mmHg 50%
    17:00 +24°C° 0.1 mm 2 mps 741 mmHg 60%
    18:00 +21°C° 0.1 mm 2 mps 741 mmHg 69%
    19:00 +21°C° 0.1 mm 1 mps 741 mmHg 79%
    20:00 +20°C° 0.2 mm 1 mps 741 mmHg 82%
    21:00 +19°C° 0.2 mm 1 mps 741 mmHg 84%
    22:00 +18°C° 0.2 mm 1 mps 741 mmHg 87%
    23:00 +18°C° 0.4 mm 1 mps 741 mmHg 89%

    Day after tomorrow, 28 May, Tuesday

    Time Temperature Precipitation Wind Pressure Humidity
    00:00 +18°C° 0.4 mm 1 mps 741 mmHg 91%
    01:00 +16°C° 0.4 mm 1 mps 740 mmHg 93%
    02:00 +16°C° 2.1 mm 1 mps 740 mmHg 93%
    03:00 +16°C° 2.1 mm 1 mps 739 mmHg 94%
    04:00 +16°C° 2.1 mm 1 mps 739 mmHg 94%
    05:00 +16°C° 1.8 mm 1 mps 739 mmHg 95%
    06:00 +16°C° 1.8 mm 1 mps 739 mmHg 95%
    07:00 +16°C° 1.8 mm 1 mps 738 mmHg 95%
    08:00 +16°C° 0.7 mm 1 mps 738 mmHg 95%
    09:00 +16°C° 0.7 mm 2 mps 738 mmHg 94%
    10:00 +16°C° 0.7 mm 3 mps 738 mmHg 94%
    11:00 +15°C° 0.2 mm 4 mps 738 mmHg 93%
    12:00 +14°C° 0.2 mm 4 mps 738 mmHg 93%
    13:00 +14°C° 0.2 mm 5 mps 738 mmHg 93%
    14:00 +13°C° 0.1 mm 5 mps 739 mmHg 92%
    15:00 +13°C° 0.1 mm 5 mps 739 mmHg 92%
    16:00 +13°C° 0.1 mm 5 mps 739 mmHg 91%
    17:00 +13°C° 0.2 mm 5 mps 739 mmHg 92%
    18:00 +12°C° 0.2 mm 5 mps 739 mmHg 93%
    19:00 +12°C° 0.2 mm 5 mps 740 mmHg 93%
    20:00 +10°C° 0 mm 5 mps 740 mmHg 94%
    21:00 +11°C° 0 mm 4 mps 740 mmHg 95%
    22:00 +10°C° 0 mm 4 mps 741 mmHg 96%
    23:00 +10°C° 0 mm 3 mps 741 mmHg 97%

    29 May, Wednesday

    Time Temperature Precipitation Wind Pressure Humidity
    00:00 +10°C° 0 mm 3 mps 741 mmHg 97%
    01:00 +9°C° 0 mm 3 mps 742 mmHg 98%
    02:00 +9°C° 0 mm 3 mps 742 mmHg 98%
    03:00 +9°C° 0 mm 3 mps 742 mmHg 97%
    04:00 +9°C° 0 mm 3 mps 743 mmHg 97%
    05:00 +10°C° 0 mm 3 mps 743 mmHg 96%
    06:00 +10°C° 0 mm 3 mps 743 mmHg 94%
    07:00 +11°C° 0 mm 3 mps 744 mmHg 92%
    08:00 +12°C° 0 mm 3 mps 744 mmHg 86%
    09:00 +13°C° 0 mm 3 mps 744 mmHg 80%
    10:00 +14°C° 0 mm 3 mps 745 mmHg 74%
    11:00 +14°C° 0 mm 3 mps 745 mmHg 71%
    12:00 +16°C° 0 mm 3 mps 745 mmHg 67%
    13:00 +17°C° 0 mm 3 mps 745 mmHg 63%
    14:00 +16°C° 0.2 mm 3 mps 745 mmHg 67%
    15:00 +16°C° 0.2 mm 2 mps 745 mmHg 72%
    16:00 +16°C° 0.2 mm 2 mps 746 mmHg 76%
    17:00 +15°C° 0.1 mm 1 mps 746 mmHg 78%
    18:00 +14°C° 0.1 mm 1 mps 746 mmHg 81%
    19:00 +13°C° 0.1 mm 0 mps 747 mmHg 83%
    20:00 +12°C° 0.2 mm 0 mps 747 mmHg 85%
    21:00 +13°C° 0.2 mm 1 mps 748 mmHg 87%
    22:00 +12°C° 0.2 mm 1 mps 748 mmHg 89%
    23:00 +12°C° 0.1 mm 1 mps 748 mmHg 90%

    30 May, Thursday

    Time Temperature Precipitation Wind Pressure Humidity
    00:00 +10°C° 0.1 mm 2 mps 749 mmHg 92%
    01:00 +10°C° 0.1 mm 2 mps 749 mmHg 93%
    02:00 +9°C° 0.1 mm 2 mps 749 mmHg 93%
    03:00 +9°C° 0.1 mm 2 mps 749 mmHg 94%
    04:00 +9°C° 0.1 mm 2 mps 750 mmHg 94%
    05:00 +9°C° 0.1 mm 2 mps 750 mmHg 92%
    06:00 +9°C° 0.1 mm 2 mps 750 mmHg 91%
    07:00 +9°C° 0.1 mm 3 mps 751 mmHg 89%
    08:00 +10°C° 0 mm 3 mps 751 mmHg 82%
    09:00 +11°C° 0 mm 3 mps 751 mmHg 75%
    10:00 +11°C° 0 mm 3 mps 752 mmHg 69%
    11:00 +12°C° 0.1 mm 3 mps 752 mmHg 68%
    12:00 +12°C° 0.1 mm 3 mps 752 mmHg 67%
    13:00 +12°C° 0.1 mm 3 mps 752 mmHg 66%
    14:00 +14°C° 0 mm 2 mps 752 mmHg 63%
    15:00 +15°C° 0 mm 2 mps 752 mmHg 61%
    16:00 +16°C° 0 mm 2 mps 752 mmHg 58%
    17:00 +15°C° 0 mm 2 mps 752 mmHg 63%
    18:00 +15°C° 0 mm 2 mps 752 mmHg 68%
    19:00 +14°C° 0 mm 2 mps 752 mmHg 73%
    20:00 +12°C° 0 mm 2 mps 752 mmHg 78%
    21:00 +10°C° 0 mm 2 mps 752 mmHg 82%
    22:00 +9°C° 0 mm 2 mps 753 mmHg 87%
    23:00 +9°C° 0 mm 2 mps 753 mmHg 88%

    31 May, Friday

    Time Temperature Precipitation Wind Pressure Humidity
    00:00 +8°C° 0 mm 2 mps 753 mmHg 89%
    01:00 +8°C° 0 mm 2 mps 753 mmHg 90%
    02:00 +8°C° 0 mm 2 mps 753 mmHg 89%
    03:00 +8°C° 0 mm 2 mps 753 mmHg 88%
    04:00 +8°C° 0 mm 2 mps 753 mmHg 87%
    05:00 +10°C° 0.1 mm 2 mps 754 mmHg 84%
    06:00 +12°C° 0.1 mm 2 mps 754 mmHg 81%
    07:00 +13°C° 0.1 mm 3 mps 754 mmHg 78%
    08:00 +14°C° 0 mm 3 mps 754 mmHg 74%
    09:00 +16°C° 0 mm 3 mps 754 mmHg 69%
    10:00 +17°C° 0 mm 3 mps 755 mmHg 65%
    11:00 +18°C° 0 mm 3 mps 755 mmHg 62%
    12:00 +18°C° 0 mm 3 mps 755 mmHg 59%
    13:00 +19°C° 0 mm 3 mps 755 mmHg 56%
    14:00 +19°C° 0 mm 3 mps 755 mmHg 56%
    15:00 +19°C° 0 mm 2 mps 754 mmHg 56%
    16:00 +19°C° 0 mm 2 mps 754 mmHg 56%
    17:00 +19°C° 0 mm 1 mps 754 mmHg 60%
    18:00 +18°C° 0 mm 1 mps 754 mmHg 64%
    19:00 +16°C° 0 mm 1 mps 754 mmHg 69%
    20:00 +15°C° 0 mm 1 mps 755 mmHg 70%
    21:00 +14°C° 0 mm 2 mps 755 mmHg 72%
    22:00 +14°C° 0 mm 2 mps 755 mmHg 74%
    23:00 +13°C° 0 mm 2 mps 755 mmHg 78%
    Show more